sat.trackr.live / text

‹ back to catalog

STARLINK-4479

NORAD 53415 · 2022-097AD

PAYLOAD ACTIVE UNKNOWN

§ Identity

Operator
Country
US
Launch date
2022-08-10
Launch site
AFETR
Launch vehicle
Mass (kg)
RCS (m²)

Purposes: comms

External: N2YO · Heavens-Above · Gunter

§ Orbital elements

Epoch: 2026-09-19T18:25:02.221248Z

Period
94.01 min
Inclination
53.1614°
Eccentricity
0.0001454
Mean motion
15.31705298 rev/d
Perigee alt
469.7 km
Apogee alt
471.7 km
Semi-major
6,848.9 km
B*
2.4404e-5
RAAN
310.2257°
Arg perigee
72.7982°
Mean anomaly
287.3178°
Rev number
22,809

§ Raw data

STARLINK-44791 53415U 22097AD  26262.76738682  .00000392  00000+0  24404-4 0  99942 53415  53.1614 310.2257 0001454  72.7982 287.3178 15.31705298228097

JSON: /api/v1/satellites/53415 · /tle

For live sub-satellite position, see the globe view (requires WebGL).

§ Visibility from observer

Set your observer location to see the next 7 days of passes ≥ 10°. The values pass through the URL so the page stays shareable.

No JS? Fill the form by hand. The geolocation button needs JavaScript.